{"data":{"norad_id":62319,"epoch":"2026-09-21T12:05:17.551104Z","epoch_age_seconds":90869,"freshness":"FRESH","line1":"1 62319U 24239U   26264.50367536  .00012651  00000+0  41876-3 0  9999","line2":"2 62319  53.1621 350.1959 0002662  88.9856 271.1451 15.31698620 99564","mean_motion":15.3169862,"eccentricity":0.0002662,"inclination_deg":53.1621,"raan_deg":350.1959,"arg_perigee_deg":88.9856,"mean_anomaly_deg":271.1451,"bstar":0.00041876,"rev_number":9956,"period_min":94.013272663261,"perigee_km":468.92093678573,"apogee_km":472.56728108813,"semimajor_km":6848.8811089369,"source":"CELESTRAK","updated_at":"2026-09-22T09:00:49.574455Z"}}